Home > Weather > U.S.A. > Metlakatla > Past weeks

Flag for U.S.A. Weather past 2 weeks in Metlakatla, Alaska, U.S.A.

46 °F

Mostly cloudy.

Feels Like: 40 °F
Forecast: 42 / 45 °F
Wind: 16 mph from Southeast

Location: Metlakatla - Metlakatla Seaplane Base

Current Time: Dec 1, 2015 at 3:11:04 AM

Latest Report: Dec 1, 2015 at 2:36 AM

Visibility: 10 mi

Pressure: 29.54 "Hg

Humidity: 82%

Dew point: 41 °F

Location of MetlakatlaLocation

Historic Weather in Metlakatla — Graph


Metlakatla temperature yesterday

Maximum temperature yesterday: 48 °F (at 12:16 AM)
Minimum temperature yesterday: 43 °F (at 2:56 PM)
Average temperature yesterday: 46 °F

Past Weeks' High & Low Weather Summary

High52 °F (Nov 27, 12:56 PM)100% (Nov 17, 11:16 PM)30.52 "Hg (Nov 17, 11:16 PM)
Low30 °F (Nov 25, 9:36 PM)26% (Nov 29, 12:16 PM)28.83 "Hg (Nov 16, 11:36 AM)
Average41 °F73%30.12 "Hg
* Reported Nov 16 5:16 AM — Dec 1 1:56 AM, Metlakatla, Weather by CustomWeather, © 2015

Note: Actual official high and low records may vary slightly from our data, if they occured in-between our weather recording intervals... More about our weather records


Metlakatla weather history for previous 24 hours

Time TempWeatherWind HumidityBarometerVisibility
1:56 AM
Tue, Dec 1
46 °FOvercast.20 mph76%29.56 "Hg10 mi
1:36 AM46 °FMostly cloudy.18 mph76%29.56 "Hg10 mi
12:56 AM46 °FMostly cloudy.13 mph76%29.56 "Hg10 mi
12:36 AM45 °FMostly cloudy.16 mph81%29.56 "Hg10 mi
12:16 AM45 °FMostly cloudy.9 mph81%29.57 "Hg10 mi
11:56 PM
Mon, Nov 30
46 °FMostly cloudy.14 mph76%29.58 "Hg10 mi
10:56 PM46 °FMostly cloudy.17 mph71%29.58 "Hg10 mi
10:16 PM46 °FOvercast.12 mph71%29.60 "Hg10 mi
9:56 PM45 °FOvercast.16 mph76%29.60 "Hg10 mi
9:16 PM45 °FMostly cloudy.22 mph76%29.61 "Hg10 mi
8:56 PM45 °FMostly cloudy.15 mph76%29.62 "Hg10 mi
8:36 PM45 °FMostly cloudy.13 mph76%29.63 "Hg10 mi
7:56 PM45 °FMostly cloudy.20 mph71%29.65 "Hg10 mi
7:36 PM45 °FMostly cloudy.18 mph71%29.65 "Hg10 mi
6:56 PM43 °FMostly cloudy.15 mph76%29.65 "Hg9 mi
6:36 PM46 °FMostly cloudy.17 mph62%29.66 "Hg10 mi
5:56 PM45 °FOvercast.15 mph71%29.68 "Hg10 mi
5:36 PM45 °FOvercast.15 mph71%29.69 "Hg10 mi
5:16 PM43 °FMostly cloudy.13 mph76%29.69 "Hg10 mi
3:36 PM43 °FMostly cloudy.17 mph71%29.71 "Hg10 mi
2:56 PM43 °FBroken clouds.17 mph71%29.72 "Hg10 mi
2:16 PM45 °FOvercast.22 mph66%29.72 "Hg10 mi
1:36 PM45 °FMostly cloudy.24 mph71%29.73 "Hg10 mi
12:56 PM45 °FMostly cloudy.17 mph71%29.74 "Hg10 mi
11:56 AM46 °FMostly cloudy.12 mph66%29.76 "Hg10 mi
11:36 AM48 °FMostly cloudy.12 mph62%29.77 "Hg10 mi
11:16 AM48 °FMostly cloudy.12 mph62%29.78 "Hg10 mi
10:56 AM48 °FOvercast.12 mph62%29.79 "Hg10 mi
10:36 AM46 °FMostly cloudy.12 mph66%29.79 "Hg10 mi
10:16 AM48 °FCloudy.7 mph66%29.80 "Hg10 mi
9:56 AM48 °FMore clouds than sun.10 mph62%29.80 "Hg10 mi
9:36 AM48 °FMore clouds than sun.15 mph62%29.80 "Hg10 mi
9:16 AM48 °FMostly cloudy.8 mph62%29.80 "Hg10 mi
8:56 AM48 °FBroken clouds.16 mph62%29.81 "Hg10 mi
8:16 AM48 °FMostly cloudy.15 mph62%29.81 "Hg10 mi
7:56 AM48 °FMore clouds than sun.8 mph62%29.81 "Hg10 mi
7:36 AM48 °FMostly cloudy.13 mph62%29.81 "Hg10 mi
7:16 AM48 °FOvercast.8 mph62%29.82 "Hg10 mi
6:56 AM48 °FMostly cloudy.13 mph66%29.82 "Hg10 mi
6:36 AM46 °FPartly cloudy.15 mph66%29.82 "Hg10 mi
6:16 AM46 °FOvercast.12 mph71%29.82 "Hg10 mi
5:56 AM45 °FMostly cloudy.8 mph76%29.84 "Hg10 mi
5:36 AM45 °FMostly cloudy.8 mph81%29.84 "Hg10 mi
5:16 AM46 °FMostly cloudy.8 mph71%29.84 "Hg10 mi
4:56 AM46 °FMostly cloudy.12 mph71%29.84 "Hg10 mi
4:36 AM46 °FMostly cloudy.16 mph71%29.85 "Hg10 mi
4:16 AM48 °FOvercast.12 mph66%29.85 "Hg10 mi
3:56 AM46 °FMostly cloudy.8 mph76%29.85 "Hg10 mi
3:36 AM46 °FOvercast.10 mph76%29.86 "Hg10 mi
3:16 AM46 °FOvercast.8 mph76%29.87 "Hg9 mi
Weather by CustomWeather, © 2015

See weather overviewHow to use our weather pages